カタログに戻る

SL-24 R/B

運用中PO
NORAD 31699·ROCKET BODY·🇷🇺 Russia

打ち上げ Jun 15, 2007 から Baikonur Cosmodrome

Loading…

次のパス (今後24時間)

TLE

最新Source: Space-Track

元期: Sep 14, 2026, 07:39 UTC

1 31699U 07026B   26257.31930063  .00000686  00000-0  10223-3 0  9991
2 31699  97.4711 217.3007 0333762  80.2230  78.0327 14.46128072 12418

AllMySatでSL-24 R/Bをリアルタイム追跡

Download on the App Store